Radiation Dose at Monitoring Post of Fukushima Daini Nuclear Power Station
Date,Time,MP-1(microSv/h),MP-2(microSv/h),MP-3(microSv/h),MP-4(microSv/h),MP-5(microSv/h),MP-6(microSv/h),MP-7(microSv/h),Wind Direction,Wind Velocity(m/s),Rain
2020/12/07,00:00,0.176,0.157,0.257,0.242,0.238,0.139,0.085,southwest,3.1,No
2020/12/07,00:10,0.175,0.159,0.256,0.242,0.239,0.140,0.085,west-southwest,2.8,No
2020/12/07,00:20,0.175,0.158,0.255,0.241,0.238,0.139,0.085,west-southwest,2.1,No
2020/12/07,00:30,0.176,0.157,0.255,0.242,0.238,0.140,0.085,west,2.2,No
2020/12/07,00:40,0.175,0.157,0.255,0.242,0.238,0.140,0.085,west,1.9,No
2020/12/07,00:50,0.175,0.158,0.256,0.244,0.239,0.139,0.085,west-northwest,2.0,No
2020/12/07,01:00,0.175,0.157,0.256,0.243,0.238,0.139,0.085,west,3.0,No
2020/12/07,01:10,0.175,0.158,0.255,0.242,0.238,0.139,0.085,west,2.2,No
2020/12/07,01:20,0.175,0.158,0.255,0.242,0.238,0.140,0.084,west,1.9,No
2020/12/07,01:30,0.176,0.159,0.257,0.242,0.239,0.140,0.086,west,2.7,No
2020/12/07,01:40,0.176,0.158,0.256,0.242,0.238,0.140,0.085,west,2.6,No
2020/12/07,01:50,0.175,0.158,0.256,0.243,0.238,0.140,0.085,west-southwest,3.3,No
2020/12/07,02:00,0.175,0.158,0.255,0.242,0.238,0.140,0.085,west-southwest,5.0,No
2020/12/07,02:10,0.176,0.158,0.255,0.241,0.239,0.139,0.085,west-southwest,6.1,No
2020/12/07,02:20,0.175,0.158,0.256,0.243,0.239,0.140,0.085,west-southwest,6.2,No
2020/12/07,02:30,0.175,0.158,0.257,0.243,0.239,0.140,0.085,west-southwest,5.4,No
2020/12/07,02:40,0.176,0.157,0.256,0.243,0.238,0.139,0.085,west-southwest,4.3,No
2020/12/07,02:50,0.175,0.158,0.256,0.243,0.239,0.140,0.086,west-southwest,4.3,No
2020/12/07,03:00,0.176,0.157,0.254,0.242,0.238,0.140,0.084,west-southwest,4.7,No
2020/12/07,03:10,0.175,0.158,0.256,0.243,0.238,0.140,0.085,west-southwest,5.1,No
2020/12/07,03:20,0.175,0.158,0.256,0.242,0.238,0.139,0.085,southwest,4.9,No
2020/12/07,03:30,0.176,0.158,0.256,0.242,0.237,0.139,0.085,southwest,4.3,No
2020/12/07,03:40,0.175,0.157,0.255,0.241,0.238,0.140,0.085,southwest,4.5,No
2020/12/07,03:50,0.176,0.158,0.255,0.242,0.238,0.140,0.085,west-southwest,5.0,No
2020/12/07,04:00,0.176,0.158,0.256,0.243,0.239,0.140,0.084,southwest,5.5,No
2020/12/07,04:10,0.175,0.157,0.255,0.242,0.238,0.139,0.085,southwest,5.2,No
2020/12/07,04:20,0.175,0.157,0.255,0.243,0.237,0.139,0.085,southwest,5.8,No
2020/12/07,04:30,0.175,0.157,0.256,0.242,0.239,0.140,0.084,southwest,6.0,No
2020/12/07,04:40,0.175,0.157,0.255,0.242,0.238,0.140,0.084,southwest,4.9,No
2020/12/07,04:50,0.175,0.157,0.257,0.242,0.238,0.139,0.085,south-southwest,5.1,No
2020/12/07,05:00,0.176,0.158,0.254,0.242,0.238,0.139,0.085,south-southwest,5.0,No
2020/12/07,05:10,0.176,0.158,0.256,0.242,0.240,0.140,0.084,south-southwest,5.3,No
2020/12/07,05:20,0.176,0.158,0.256,0.241,0.238,0.140,0.084,south-southwest,4.9,No
2020/12/07,05:30,0.176,0.157,0.257,0.242,0.238,0.139,0.085,south-southwest,4.9,No
2020/12/07,05:40,0.175,0.158,0.256,0.243,0.237,0.140,0.085,south,4.5,No
2020/12/07,05:50,0.175,0.158,0.255,0.243,0.239,0.139,0.085,south,3.7,No
2020/12/07,06:00,0.176,0.157,0.257,0.242,0.239,0.140,0.085,south,4.0,No
2020/12/07,06:10,0.176,0.157,0.256,0.242,0.237,0.139,0.084,south,4.3,No
2020/12/07,06:20,0.175,0.158,0.255,0.243,0.238,0.140,0.084,south,4.0,No
2020/12/07,06:30,0.175,0.157,0.256,0.242,0.238,0.140,0.085,south-southeast,4.1,No
2020/12/07,06:40,0.175,0.158,0.257,0.241,0.237,0.140,0.085,south,5.0,No
2020/12/07,06:50,0.176,0.158,0.256,0.243,0.239,0.140,0.085,south,5.5,No
2020/12/07,07:00,0.175,0.157,0.255,0.242,0.238,0.140,0.085,south,5.4,No
2020/12/07,07:10,0.175,0.157,0.256,0.242,0.237,0.140,0.085,south,4.9,No
2020/12/07,07:20,0.176,0.158,0.256,0.242,0.238,0.140,0.085,south,4.2,No
2020/12/07,07:30,0.176,0.158,0.256,0.243,0.238,0.140,0.085,south,4.0,No
2020/12/07,07:40,0.175,0.158,0.256,0.243,0.238,0.140,0.084,south,4.8,No
2020/12/07,07:50,0.176,0.158,0.255,0.241,0.237,0.140,0.085,south,4.3,No
2020/12/07,08:00,0.175,0.156,0.255,0.242,0.238,0.140,0.084,south,4.4,No
2020/12/07,08:10,0.176,0.157,0.256,0.243,0.238,0.139,0.085,south,4.8,No
2020/12/07,08:20,0.176,0.158,0.255,0.241,0.237,0.140,0.084,south,5.1,No
2020/12/07,08:30,0.175,0.157,0.256,0.242,0.240,0.140,0.085,south,5.2,No
2020/12/07,08:40,0.176,0.157,0.255,0.242,0.237,0.139,0.084,south-southeast,5.8,No
2020/12/07,08:50,0.176,0.157,0.255,0.240,0.238,0.138,0.084,south,5.9,No
2020/12/07,09:00,0.175,0.157,0.254,0.242,0.239,0.138,0.084,south,5.3,No
2020/12/07,09:10,0.176,0.157,0.255,0.241,0.239,0.139,0.085,south,4.6,No
2020/12/07,09:20,0.177,0.157,0.255,0.243,0.240,0.139,0.084,south,3.6,No
2020/12/07,09:30,0.175,0.156,0.256,0.242,0.238,0.139,0.085,south,3.3,No
2020/12/07,09:40,0.176,0.157,0.255,0.242,0.239,0.139,0.084,southwest,1.1,No
2020/12/07,09:50,0.175,0.157,0.255,0.243,0.237,0.139,0.084,-,CALM,No
2020/12/07,10:00,0.176,0.157,0.257,0.242,0.240,0.140,0.085,south-southeast,3.0,No
2020/12/07,10:10,0.175,0.158,0.255,0.244,0.238,0.140,0.085,south,2.7,No
2020/12/07,10:20,0.175,0.157,0.255,0.241,0.239,0.139,0.085,southwest,3.7,No
2020/12/07,10:30,0.176,0.156,0.255,0.244,0.238,0.140,0.085,south,2.4,No
2020/12/07,10:40,0.174,0.158,0.255,0.242,0.237,0.140,0.085,southwest,3.2,No
2020/12/07,10:50,0.174,0.156,0.255,0.243,0.238,0.141,0.084,southwest,2.5,No
2020/12/07,11:00,0.174,0.157,0.254,0.242,0.239,0.140,0.085,west,4.0,No
2020/12/07,11:10,0.174,0.157,0.256,0.243,0.239,0.140,0.085,west,3.9,No
2020/12/07,11:20,0.174,0.157,0.254,0.241,0.238,0.140,0.084,west-southwest,6.5,No
2020/12/07,11:30,0.174,0.158,0.255,0.240,0.239,0.140,0.084,west,8.2,No
2020/12/07,11:40,0.175,0.157,0.256,0.243,0.237,0.140,0.084,west,10.0,No
2020/12/07,11:50,0.173,0.157,0.255,0.241,0.239,0.140,0.084,west,7.8,No
2020/12/07,12:00,0.174,0.157,0.254,0.243,0.237,0.139,0.084,west-southwest,6.3,No
2020/12/07,12:10,0.174,0.158,0.256,0.242,0.239,0.139,0.085,west,7.0,No
2020/12/07,12:20,0.175,0.157,0.257,0.242,0.237,0.140,0.084,west,6.7,No
2020/12/07,12:30,0.174,0.156,0.256,0.242,0.240,0.139,0.084,west,5.3,No
2020/12/07,12:40,0.176,0.158,0.257,0.242,0.238,0.139,0.084,west-southwest,5.5,No
2020/12/07,12:50,0.174,0.157,0.256,0.242,0.240,0.139,0.084,west,5.9,No
2020/12/07,13:00,0.176,0.159,0.256,0.242,0.237,0.140,0.084,west,4.6,No
2020/12/07,13:10,0.174,0.156,0.255,0.242,0.241,0.139,0.085,west-southwest,4.1,No
2020/12/07,13:20,0.175,0.156,0.256,0.241,0.237,0.139,0.084,west-southwest,5.1,No
2020/12/07,13:30,0.174,0.156,0.255,0.242,0.240,0.139,0.084,west-southwest,6.2,No
2020/12/07,13:40,0.173,0.157,0.255,0.242,0.238,0.139,0.085,west,7.4,No
2020/12/07,13:50,0.174,0.157,0.255,0.240,0.237,0.139,0.083,west-northwest,7.3,No
2020/12/07,14:00,0.175,0.157,0.256,0.243,0.239,0.139,0.085,west-northwest,4.9,No
2020/12/07,14:10,0.176,0.156,0.256,0.241,0.235,0.139,0.084,west-northwest,4.1,No
2020/12/07,14:20,0.174,0.157,0.256,0.242,0.238,0.138,0.085,west-northwest,5.8,No
2020/12/07,14:30,0.175,0.158,0.254,0.242,0.237,0.139,0.084,west-northwest,9.8,No
2020/12/07,14:40,0.175,0.157,0.255,0.242,0.239,0.140,0.085,west-northwest,11.1,No
2020/12/07,14:50,0.175,0.157,0.257,0.242,0.238,0.139,0.084,northwest,9.2,No
2020/12/07,15:00,0.176,0.158,0.255,0.243,0.238,0.140,0.085,west-northwest,9.5,No
2020/12/07,15:10,0.175,0.157,0.256,0.243,0.239,0.139,0.084,west-northwest,9.0,No
2020/12/07,15:20,0.177,0.158,0.256,0.244,0.239,0.140,0.084,west-northwest,8.1,No
2020/12/07,15:30,0.174,0.158,0.257,0.242,0.239,0.139,0.084,north-northwest,5.6,No
2020/12/07,15:40,0.176,0.157,0.257,0.243,0.240,0.139,0.085,north-northwest,5.3,No
2020/12/07,15:50,0.175,0.158,0.256,0.242,0.239,0.139,0.085,north-northwest,5.0,No
2020/12/07,16:00,0.175,0.157,0.256,0.243,0.240,0.140,0.084,northwest,4.0,No
2020/12/07,16:10,0.176,0.158,0.257,0.243,0.238,0.140,0.085,northwest,3.2,No
2020/12/07,16:20,0.175,0.158,0.256,0.242,0.240,0.139,0.084,northwest,3.0,No
2020/12/07,16:30,0.176,0.157,0.258,0.244,0.239,0.140,0.084,west-northwest,3.4,No
2020/12/07,16:40,0.175,0.158,0.257,0.242,0.238,0.140,0.084,west-northwest,3.6,No
2020/12/07,16:50,0.176,0.158,0.256,0.242,0.240,0.140,0.084,northwest,3.9,No
2020/12/07,17:00,0.176,0.158,0.258,0.244,0.238,0.139,0.085,northwest,4.4,No
2020/12/07,17:10,0.176,0.158,0.257,0.243,0.240,0.140,0.085,west-northwest,5.8,No
2020/12/07,17:20,0.175,0.159,0.255,0.242,0.239,0.140,0.084,west-northwest,6.8,No
2020/12/07,17:30,0.176,0.159,0.258,0.244,0.237,0.141,0.085,northwest,6.7,No
2020/12/07,17:40,0.176,0.159,0.258,0.243,0.239,0.141,0.085,northwest,4.1,No
2020/12/07,17:50,0.176,0.159,0.256,0.243,0.239,0.140,0.085,north-northwest,3.3,No
2020/12/07,18:00,0.174,0.158,0.258,0.244,0.239,0.140,0.085,north,3.1,No
2020/12/07,18:10,0.174,0.158,0.257,0.244,0.239,0.141,0.084,north,3.5,No
2020/12/07,18:20,0.177,0.159,0.257,0.244,0.238,0.140,0.085,north-northeast,2.8,No
2020/12/07,18:30,0.176,0.158,0.258,0.245,0.239,0.140,0.085,north-northwest,3.4,No
2020/12/07,18:40,0.176,0.159,0.257,0.244,0.238,0.139,0.084,north-northwest,4.5,No
2020/12/07,18:50,0.176,0.158,0.257,0.243,0.238,0.141,0.085,north-northwest,4.4,No
2020/12/07,19:00,0.176,0.157,0.258,0.244,0.239,0.140,0.085,north,3.7,No
2020/12/07,19:10,0.176,0.158,0.255,0.243,0.239,0.140,0.085,north,4.6,No
2020/12/07,19:20,0.178,0.158,0.256,0.245,0.239,0.140,0.085,north,4.4,No
2020/12/07,19:30,0.175,0.159,0.257,0.243,0.239,0.141,0.085,north-northeast,4.3,No
2020/12/07,19:40,0.176,0.158,0.258,0.244,0.240,0.140,0.085,north,3.4,No
2020/12/07,19:50,0.177,0.159,0.256,0.244,0.239,0.140,0.085,north-northwest,3.6,No
2020/12/07,20:00,0.175,0.158,0.257,0.244,0.240,0.140,0.084,north-northwest,3.1,No
2020/12/07,20:10,0.176,0.159,0.257,0.244,0.240,0.140,0.085,north-northwest,3.4,No
2020/12/07,20:20,0.175,0.158,0.256,0.243,0.241,0.141,0.086,north-northwest,3.4,No
2020/12/07,20:30,0.176,0.158,0.258,0.242,0.241,0.141,0.085,north-northwest,3.2,No
2020/12/07,20:40,0.176,0.159,0.257,0.245,0.238,0.140,0.085,north,3.4,No
2020/12/07,20:50,0.176,0.158,0.256,0.244,0.240,0.139,0.086,north,4.0,No
2020/12/07,21:00,0.177,0.158,0.258,0.243,0.238,0.141,0.086,north-northwest,3.8,No
2020/12/07,21:10,0.177,0.158,0.258,0.245,0.240,0.140,0.085,north-northwest,4.5,No
2020/12/07,21:20,0.177,0.159,0.257,0.244,0.241,0.140,0.085,north-northwest,4.8,No
2020/12/07,21:30,0.176,0.157,0.257,0.244,0.240,0.139,0.085,north-northwest,5.1,No
2020/12/07,21:40,0.177,0.158,0.259,0.244,0.241,0.141,0.085,north-northwest,5.5,No
2020/12/07,21:50,0.177,0.157,0.257,0.243,0.240,0.140,0.085,north-northwest,3.7,No
2020/12/07,22:00,0.176,0.157,0.256,0.244,0.239,0.139,0.085,north-northwest,3.6,No
2020/12/07,22:10,0.177,0.159,0.258,0.245,0.241,0.140,0.086,north,3.3,No
2020/12/07,22:20,0.176,0.157,0.255,0.243,0.238,0.141,0.085,north-northeast,2.4,No
2020/12/07,22:30,0.177,0.158,0.257,0.244,0.239,0.140,0.086,north-northeast,1.9,No
2020/12/07,22:40,0.176,0.158,0.258,0.244,0.240,0.141,0.085,north,1.5,No
2020/12/07,22:50,0.176,0.159,0.257,0.245,0.240,0.141,0.086,north,0.7,No
2020/12/07,23:00,0.176,0.158,0.257,0.243,0.238,0.140,0.085,north,1.3,No
2020/12/07,23:10,0.176,0.159,0.258,0.244,0.239,0.141,0.085,north-northwest,1.7,No
2020/12/07,23:20,0.177,0.159,0.258,0.244,0.239,0.140,0.085,northwest,2.2,No
2020/12/07,23:30,0.176,0.158,0.256,0.243,0.239,0.140,0.085,west-northwest,1.1,No
2020/12/07,23:40,0.176,0.158,0.256,0.245,0.239,0.141,0.085,northwest,1.1,No
2020/12/07,23:50,0.177,0.159,0.258,0.245,0.239,0.140,0.086,-,CALM,No
